This is the latest recevied weather packets stored in our database for station/object OE6ACM-10. If no packets are shown the sender has not sent any weather packets the latest 10 day(s).
| Time | Temp. | Humidity | Pressure | Rain* | Wind** | Luminosity | Snow |
|---|---|---|---|---|---|---|---|
| 1787772105 | 24.44° C | 100% | 929.8 hPa | - | - | - | - |
| 1787771805 | 24.44° C | 100% | 929.8 hPa | - | - | - | - |
| 1787771505 | 24.44° C | 100% | 929.8 hPa | - | - | - | - |
| 1787771205 | 24.44° C | 100% | 929.7 hPa | - | - | - | - |
| 1787770905 | 24.44° C | 100% | 929.7 hPa | - | - | - | - |
| 1787770605 | 25° C | 100% | 929.7 hPa | - | - | - | - |
| 1787770305 | 25° C | 100% | 929.6 hPa | - | - | - | - |
| 1787770005 | 25° C | 100% | 929.5 hPa | - | - | - | - |
| 1787769705 | 25.56° C | 100% | 929.5 hPa | - | - | - | - |
| 1787769405 | 25.56° C | 100% | 929.4 hPa | - | - | - | - |
| 1787769105 | 25.56° C | 100% | 929.4 hPa | - | - | - | - |
| 1787768805 | 26.11° C | 100% | 929.4 hPa | - | - | - | - |
| 1787768505 | 26.11° C | 100% | 929.3 hPa | - | - | - | - |
| 1787768205 | 26.67° C | 100% | 929.4 hPa | - | - | - | - |
| 1787767905 | 26.67° C | 100% | 929.3 hPa | - | - | - | - |
| 1787767605 | 27.22° C | 100% | 929.1 hPa | - | - | - | - |
| 1787767305 | 27.22° C | 100% | 929.2 hPa | - | - | - | - |
| 1787767005 | 27.78° C | 100% | 929.3 hPa | - | - | - | - |
| 1787766705 | 28.33° C | 100% | 929.2 hPa | - | - | - | - |
| 1787766405 | 28.89° C | 100% | 929.1 hPa | - | - | - | - |
| 1787766105 | 28.89° C | 100% | 928.9 hPa | - | - | - | - |
| 1787765805 | 29.44° C | 100% | 928.9 hPa | - | - | - | - |
| 1787765505 | 30° C | 100% | 928.9 hPa | - | - | - | - |
| 1787765205 | 30.56° C | 100% | 928.9 hPa | - | - | - | - |
| 1787764905 | 31.67° C | 100% | 928.8 hPa | - | - | - | - |
* Rain since midnight (hover to see other rain measurements)
** Current wind speed in m/s (hover to see current wind gust speed)